Location: Ash Shall?l al Awwal
(24.0167°N, 32.8667°E)
Time: 03:35:09
(UTC+00:00)

SL-8 Rocket - Pass Details

Date: 02 March 2021
Orbit: 957 x 991 km, 82.9° (Epoch: 12 April)

Event Time Altitude Azimuth Distance (km) Brightness Sun altitude
Rises 17:34:31 0° 190° (S) 3,680 7.1 -24.2°
Reaches altitude 10° 17:37:03 10° 192° (SSW) 2,730 6.4 -24.8°
Maximum altitude 17:43:17 70° 275° (W) 1,038 4.2 -26.2°
Drops below altitude 10° 17:49:29 10° 359° (N) 2,717 6.4 -27.6°
Sets 17:52:00 0° 2° (N) 3,661 7.1 -28.2°
